Change the Weather History Date:

Tuesday, May 1, 2012

  Actual Average Record
Temperature  
Mean Temperature 62 °F 53 °F  
Max Temperature 76 °F 68 °F 82 °F (2001)
Min Temperature 47 °F 39 °F 24 °F (2014)
Degree Days  
Heating Degree Days 3 12  
Month to date heating degree days 3 12  
Since 1 July heating degree days 5551 5950  
Cooling Degree Days 0 0  
Month to date cooling degree days 0 0  
Year to date cooling degree days 7 0  
Growing Degree Days 12 (Base 50)    
Moisture  
Dew Point 21 °F    
Average Humidity 24    
Maximum Humidity 34    
Minimum Humidity 14    
Precipitation  
Precipitation 0.00 in 0.05 in 0.11 in (2013)
Month to date precipitation 0.00 0.05  
Year to date precipitation 1.56 3.27  
Sea Level Pressure  
Sea Level Pressure 29.68 in    
Wind  
Wind Speed 10 mph (SSW)    
Max Wind Speed 21 mph    
Max Gust Speed 29 mph    
Visibility 10 miles    
Events      
T = Trace of Precipitation, MM = Missing Value Source: NWS Daily Summary

Daily Weather History Graph

Daily Weather History Graph

Search for Another Location

Airport or City:

Trip Planner

Search our weather history database for the weather conditions in past years. The results will help you decide how hot, cold, wet, or windy it might be!

Date:

Astronomy

May. 01, 2012 Rise Set
Actual Time 6:13 AM MDT 8:03 PM MDT
Civil Twilight 5:45 AM MDT 8:32 PM MDT
Nautical Twilight 5:10 AM MDT 9:07 PM MDT
Astronomical Twilight 4:33 AM MDT 9:44 PM MDT
Moon 3:14 PM MDT 3:08 AM MDT
Length of Visible Light 14h 47m
Length of Day
13h 50m
Waxing Gibbous, 74% of the Moon is Illuminated
May 1
Waxing Gibbous
May 5
Full
May 12
Last Quarter
May 20
New
May 28
First Quarter

Hourly Weather History & Observations

Time (MDT) Temp. Dew Point Humidity Pressure Visibility Wind Dir Wind Speed Gust Speed Precip Events Conditions
12:53 AM 54.0 °F 15.1 °F 22% 29.73 in 10.0 mi SE 10.4 mph - N/A   Clear
1:53 AM 53.1 °F 18.0 °F 25% 29.71 in 10.0 mi SSE 6.9 mph - N/A   Clear
2:53 AM 53.1 °F 18.0 °F 25% 29.68 in 10.0 mi SE 10.4 mph - N/A   Clear
3:53 AM 51.1 °F 19.0 °F 28% 29.68 in 10.0 mi SSE 6.9 mph - N/A   Clear
4:53 AM 48.9 °F 21.0 °F 33% 29.69 in 10.0 mi SE 9.2 mph - N/A   Clear
7:53 AM 61.0 °F 18.0 °F 19% 29.67 in 10.0 mi SE 5.8 mph - N/A   Clear
8:53 AM 64.9 °F 19.0 °F 17% 29.67 in 10.0 mi NE 6.9 mph - N/A   Mostly Cloudy
10:04 AM 66.2 °F 19.4 °F 17% 29.89 in 10.0 mi WSW 18.4 mph 27.6 mph N/A   Overcast
10:53 AM 66.0 °F 19.0 °F 17% 29.72 in 10.0 mi WSW 13.8 mph - N/A   Overcast
11:53 AM 66.0 °F 21.0 °F 18% 29.72 in 10.0 mi WSW 8.1 mph - N/A   Overcast
12:53 PM 66.0 °F 23.0 °F 20% 29.70 in 10.0 mi WSW 3.5 mph - N/A   Overcast
2:53 PM 70.0 °F 24.1 °F 18% 29.66 in 10.0 mi West 13.8 mph 17.3 mph N/A   Overcast
3:53 PM 75.0 °F 25.0 °F 16% 29.62 in 10.0 mi WSW 13.8 mph 21.9 mph N/A   Mostly Cloudy
4:53 PM 75.0 °F 25.0 °F 16% 29.61 in 10.0 mi WSW 11.5 mph 20.7 mph N/A   Mostly Cloudy
5:53 PM 73.9 °F 24.1 °F 16% 29.57 in 10.0 mi SSW 15.0 mph 21.9 mph N/A   Mostly Cloudy
6:00 PM 75.2 °F 24.8 °F 15% 29.79 in 10.0 mi SSW 12.7 mph 21.9 mph N/A   Scattered Clouds
6:53 PM 73.9 °F 24.1 °F 16% 29.57 in 10.0 mi SW 15.0 mph 19.6 mph N/A   Mostly Cloudy
7:53 PM 70.0 °F 21.9 °F 16% 29.59 in 10.0 mi SW 8.1 mph - N/A   Clear
8:53 PM 64.9 °F 19.9 °F 18% 29.62 in 10.0 mi SSW 9.2 mph - N/A   Clear
9:53 PM 59.0 °F 21.9 °F 24% 29.65 in 10.0 mi SE 5.8 mph - N/A   Clear
10:53 PM 61.0 °F 23.0 °F 23% 29.65 in 10.0 mi SSW 12.7 mph - N/A   Clear
11:53 PM 55.0 °F 25.0 °F 31% 29.67 in 10.0 mi SE 12.7 mph - N/A   Partly Cloudy